Location: Melbourne
(37.8120°S, 144.9677°E)
Time: 00:26:15
(UTC+10:00)

ISS - Visible Passes

Search period start: 22 June 2018 00:00
Search period end: 02 July 2018 00:00
Orbit: 402 x 406 km, 51.6° (Epoch: 21 June)

Date Brightness Start Highest point End Pass type
(mag) Time Alt. Az. Time Alt. Az. Time Alt. Az.
24 Jun -2.4 19:00:39 10° NNW 19:02:41 30° N 19:02:41 30° N visible
25 Jun -2.2 18:09:01 10° N 18:11:36 21° NE 18:12:50 17° E visible
25 Jun -0.6 19:44:49 10° WNW 19:45:31 15° W 19:45:31 15° W visible
26 Jun -3.7 18:52:12 10° WNW 18:55:29 69° SW 18:55:34 69° SSW visible
27 Jun -3.6 17:59:55 10° NW 18:03:09 56° NE 18:05:34 17° ESE visible
27 Jun -0.8 19:37:21 10° WSW 19:38:13 14° WSW 19:38:13 14° WSW visible
28 Jun -2.4 18:44:19 10° W 18:47:17 30° SSW 18:48:08 26° S visible
29 Jun -3.3 17:51:33 10° WNW 17:54:48 54° SW 17:57:58 11° SE visible
29 Jun -0.7 19:30:23 10° SW 19:30:37 11° SW 19:30:37 11° SW visible
30 Jun -1.6 18:36:54 10° WSW 18:39:12 17° SSW 18:40:23 15° S visible
01 Jul -2.1 17:43:44 10° W 17:46:34 26° SSW 17:49:26 10° SSE visible
